Webcams

EDPO Webcam Blick Richtung Osten (local time)

Webcam

Info zum Bild:

  • Blick zum Kloster Mariahilf, Entfernung ca. 3km
  • Blick zur Kirche St. Johannes, Entfernung ca. 1km
  • Blick zu den beiden Windrädern, Entfernung ca. 6km

EDPO Webcam Blick Richtung Westen (local time)

Webcam

Info zum Bild:

  • Blick zum Tyrolsberg, Entfernung ca. 3,5km

Dillberg Webcam Blick Richtung Westen zum Sender (local time)

Webcam

Info zum Bild:

  • Blick zum Dillberg Sender, Entfernung ca. 0,6 km
  • Höhe 2.716 ft über MSL Hindernis Höhe Sender (laut ICAO Karte)
  • Höhe 1.322 ft über EDPO Höhe Sender
  • Nord Platzrundenhöhe EDPO 2.200 ft

Dillberg Webcam Blick Richtung Osten zu EDPO (local time)

Webcam

Info zum Bild:

  • Blick vom Dillberg Richtung Neumarkt, Höhe 555ft über EDPO

Nürnberger Fernsehturm (Rundum CAM)


METAR Informationen der nächstgelegenen Flughäfen


EDDN / Flughafen Nürnberg „Albrecht Dürer“

EDDN 150220Z AUTO 17006KT 9999 FEW048 11/10 Q1012

ETIC / Fliegerhorst Grafenwöhr AAF

ETIC 150155Z AUTO 18004KT 9999 -RA FEW047 BKN060 OVC070 10/09 A2988 RMK AO2 RAB0055E10DZB10E14RAB14E15DZB15E16RAB16 SLP119 P0000 T01020093 $

ETIH / Fliegerhorst Hohenfels AAF

ETIH 150205Z AUTO 28005KT 9999 -TSRA SCT044 BKN060 13/10 A2993 RMK AO2 DZB0156E01RAB01 TSB05 PRESRR SLP134 $